Home > Weather > Datteln > Past weeks

Flag for Germany Weather for the Past 2 Weeks in Datteln, North Rhine-Westphalia, Germany

Now
48 °F

Sunny.


Feels Like: 48 °F
Forecast: 39 / 64 °F
Wind: 2 mph from North

Location: Dortmund / Wickede

Current Time: May 1, 2016 at 11:48:42 PM

Latest Report: May 1, 2016 at 9:50 PM


Visibility: 10 mi

Pressure: 30.33 "Hg

Humidity: 71%

Dew Point: 39 °F

Location of DattelnLocation

Historic Weather in Datteln — Graph

°F

Datteln Temperature Yesterday

Maximum temperature yesterday: 48 °F (at 4:50 PM)
Minimum temperature yesterday: 39 °F (at 8:20 AM)
Average temperature yesterday: 44 °F

High & Low Weather Summary for the Past Weeks

 TemperatureHumidityPressure
High63 °F (Apr 21, 4:50 PM)93% (Apr 20, 7:20 AM)30.48 "Hg (Apr 20, 7:20 AM)
Low32 °F (Apr 20, 5:50 AM)33% (Apr 20, 6:50 PM)29.45 "Hg (Apr 26, 1:50 PM)
Average45 °F65%30.00 "Hg
* Reported Apr 16 9:20 PM — May 1 9:50 PM, Datteln, Weather by CustomWeather, © 2016

Note: Actual official high and low records may vary slightly from our data, if they occured in-between our weather recording intervals... More about our weather records

Advertising

Datteln Weather History for the Previous 24 Hours

Scroll right to see more
 ConditionsComfort  
Time TempWeatherWind HumidityBarometerVisibility
9:50 PM
Sun, May 1
48 °FSunny.2 mph71%30.33 "Hg10 mi
9:20 PM48 °FSunny.3 mph71%30.33 "Hg10 mi
8:50 PM50 °FPassing clouds.6 mph67%30.30 "HgN/A
8:20 PM52 °FPassing clouds.6 mph62%30.30 "HgN/A
7:50 PM54 °FPassing clouds.6 mph63%30.30 "HgN/A
7:20 PM55 °FPassing clouds.7 mph55%30.30 "HgN/A
6:50 PM57 °FPassing clouds.8 mph48%30.27 "HgN/A
6:20 PM57 °FPassing clouds.8 mph51%30.27 "HgN/A
5:50 PM57 °FPassing clouds.8 mph51%30.27 "HgN/A
5:20 PM55 °FPassing clouds.7 mph51%30.27 "HgN/A
4:50 PM57 °FPassing clouds.7 mph51%30.27 "HgN/A
4:20 PM57 °FPassing clouds.9 mph48%30.27 "HgN/A
3:50 PM55 °FPassing clouds.9 mph55%30.27 "HgN/A
3:20 PM54 °FScattered clouds.7 mph54%30.27 "HgN/A
2:50 PM54 °FPassing clouds.10 mph58%30.27 "HgN/A
2:20 PM54 °FScattered clouds.9 mph58%30.27 "HgN/A
1:50 PM54 °FPartly sunny.9 mph58%30.27 "HgN/A
1:20 PM52 °FPartly sunny.9 mph58%30.27 "HgN/A
12:50 PM54 °FScattered clouds.9 mph63%30.27 "HgN/A
12:20 PM50 °FPassing clouds.10 mph62%30.30 "HgN/A
11:50 AM50 °FPassing clouds.12 mph62%30.30 "HgN/A
11:20 AM48 °FPassing clouds.10 mph66%30.30 "HgN/A
10:50 AM48 °FScattered clouds.9 mph66%30.27 "HgN/A
10:20 AM46 °FScattered clouds.9 mph66%30.27 "HgN/A
9:50 AM45 °FPartly sunny.9 mph71%30.27 "HgN/A
8:50 AM43 °FBroken clouds.9 mph76%30.27 "HgN/A
8:20 AM41 °FBroken clouds.7 mph81%30.27 "HgN/A
7:50 AM41 °FPartly sunny.7 mph81%30.27 "HgN/A
7:20 AM41 °FBroken clouds.8 mph81%30.24 "HgN/A
6:20 AM41 °FPassing clouds.7 mph87%30.24 "HgN/A
5:50 AM41 °FLight rain. Partly cloudy.5 mph87%30.24 "HgN/A
5:20 AM41 °FLight rain. Passing clouds.3 mph87%30.24 "HgN/A
Weather by CustomWeather, © 2016

See weather overviewHow to use our weather pages